GLOBALSTAR M087

Last updated on Sun Jun 21 2026 00:03:18 GMT+0000 (Coordinated Universal Time)

1 52888U 22064A 26171.40901816 -.00000094 00000+0 57296-4 0 9997 2 52888 52.0009 52.6440 0000810 45.1973 314.8959 12.62269144191544
UTC large
Height (km)
Speed (km/s)
/
Latitude / Longitude
Inclination (degrees)
Orbital Period (minutes)
Azimuth
Elevation
Range (km)
Doppler Factor

Next 0 passes for location: London (51.5072 / 0.1276)

No passes found over London.
GLOBALSTAR M087